Regional Weather Roundup
Issued by NWS

Home | Current Version | Previous Version | Text Only | Print | Product List | Glossary Off
Versions: 1 2 3 4 5 6 7 8 9 10 11 12 13 14 15 16 17 18 19 20 21 22 23 24 25 26 27 28 29 30 31 32 33 34 35 36 37 38 39 40 41 42 43 44 45 46 47 48 49 50

000
ASUS43 KLMK 280302
RWRKY
KENTUCKY REGIONAL WEATHER ROUNDUP
NATIONAL WEATHER SERVICE LOUISVILLE KY
1100 PM EDT MON MAR 27 2017

NOTE "FAIR" INDICATES FEW OR NO CLOUDS BELOW 12,000 FEET
WITH NO SIGNIFICANT WEATHER AND/OR OBSTRUCTIONS TO VISIBILITY.

KYZ001>023-026-027-061>063-070>075-280400-
WESTERN AND SOUTH CENTRAL KENTUCKY

CITY           SKY/WX    TMP DP  RH WIND       PRES   REMARKS
PADUCAH        FOG       53  51  93 CALM      29.87R VSB 1/2
HENDERSON      CLEAR     55  50  82 SW7       29.84S
OWENSBORO      MOCLDY    57  55  93 W7        29.86R
HOPKINSVILLE   CLOUDY    57  57 100 CALM      29.87R
BOWLING GREEN  MOCLDY    57  54  89 NW5       29.86S
GLASGOW        NOT AVBL
$$

KYZ024-025-028>034-038-045-046-053-280400-
NORTH CENTRAL KENTUCKY

CITY           SKY/WX    TMP DP  RH WIND       PRES   REMARKS
LOUISVILLE/SDF CLOUDY    57  54  89 SE6       29.85S
LOUISVILLE/LOU CLOUDY    58  55  90 S3        29.85F
FORT KNOX      CLOUDY    54  54 100 S3        29.84S
$$

KYZ035>037-039>044-047>052-055>060-089>105-280400-
NORTHEAST KENTUCKY

CITY           SKY/WX    TMP DP  RH WIND       PRES   REMARKS
LEXINGTON      CLOUDY    56  53  90 SE9       29.88F
COVINGTON      CLOUDY    57  56  96 S5        29.86R
FRANKFORT      CLOUDY    56  52  86 SE7       29.86R
$$

KYZ054-064>069-076>088-106>120-280400-
SOUTHEAST KENTUCKY

CITY           SKY/WX    TMP DP  RH WIND       PRES   REMARKS
JACKSON        LGT RAIN  54  54 100 CALM      29.95F VSB 1/2
LONDON         LGT RAIN  56  53  90 SE3       29.94F
SOMERSET       NOT AVBL
MIDDLESBORO    CLOUDY    57  57 100 SW3       29.97R
MONTICELLO     LGT RAIN  58  56  93 SE10      29.93F
$$





USA.gov is the U.S. government's official web portal to all federal, state and local government web resources and services.